Location: Cerbedi�res
(48.2182°N, 1.4849°W)
Time: 00:12:26
(UTC+00:00)

Resurs 1-3 - Pass Details

Date: 03 March 2021
Orbit: 629 x 633 km, 97.9° (Epoch: 14 April)

Event Time Altitude Azimuth Distance (km) Brightness Sun altitude
Exits shadow 19:38:49 37° 83° (E) 989 4.1 -18.3°
Maximum altitude 19:39:15 38° 68° (ENE) 971 4.1 -18.4°
Drops below altitude 10° 19:43:20 10° 1° (N) 2,028 6.3 -19.0°
Sets 19:45:39 0° 353° (N) 2,941 7.3 -19.4°
